Regional Weather Roundup
Issued by NWS Jackson, KY

Home | Current Version | Previous Version | Graphics & Text | Print | Product List | Glossary On
Versions: 1 2 3 4 5 6 7 8 9 10 11 12 13 14 15 16 17 18 19 20 21 22 23 24 25 26 27 28 29 30 31 32 33 34 35 36 37 38 39 40 41 42 43 44 45 46 47 48 49 50
000
ASUS43 KJKL 011910
RWRJKL

EAST KENTUCKY HOURLY WEATHER ROUNDUP
NATIONAL WEATHER SERVICE JACKSON KY
300 PM EDT MON JUN 01 2015

NOTE: "FAIR" INDICATES FEW OR NO CLOUDS BELOW 12,000 FEET WITH
NO SIGNIFICANT WEATHER AND/OR OBSTRUCTIONS TO VISIBILITY.

* THESE REPORTS ARE NOT UNDER NWS QUALITY CONTROL AND MAY NOT
  REPORT WEATHER SUCH AS PRECIPITATION AND FOG.

KYZ079-080-083-085-087-088-110-112-115-119-120-012000
...EASTERN KENTUCKY...

CITY           SKY/WX    TMP DP  RH WIND       PRES   REMARKS
JACKSON        RAIN      63  61  93 N5        30.06S FOG
LONDON         CLOUDY    68  62  81 NW9       30.07R
SOMERSET*      CLOUDY    63  61  94 NE6       30.09S
MONTICELLO*    CLOUDY    70  68  94 N9        30.09S
MIDDLESBORO*   LGT RAIN  73  65  76 NW14      30.04S
HARLAN APT*    CLOUDY    70  59  68 W10G17    30.06R
HAZARD APT*    RAIN      66  66 100 W5        30.06R
BLACK MTN*       N/A     66  61  82 S3          N/A
PIKEVILLE APT* PTSUNNY   68  66  94 N7        30.03F
BIG SANDY*     CLOUDY    69  64  85 N5        30.04F
MOREHEAD APT*  LGT RAIN  55  54  94 VRB5      30.13R
$$

KYZ035-036-041-042-044-050-067-078-099-012000
...CENTRAL KENTUCKY...

CITY           SKY/WX    TMP DP  RH WIND       PRES   REMARKS
MT STERLING*   LGT RAIN  54  54 100 NE6       30.12F
FLEMING/MASON* LGT RAIN  54  52  94 NE5       30.13S
DANVILLE*      CLOUDY    57  55  94 N5        30.12R
RICHMOND*      CLOUDY    57  54  88 NW8       30.10S
LEXINGTON      LGT RAIN  57  54  89 N8        30.11F
FRANKFORT      CLOUDY    56  53  90 N8        30.11F
$$

KYZ091>093-OHZ055-061-077-WVZ005-015-034-035-042-012000
...SOUTHERN OHIO/WEST VIRGINIA...

CITY           SKY/WX    TMP DP  RH WIND       PRES   REMARKS
COVINGTON      CLOUDY    56  51  84 NE7       30.13F
COLUMBUS       CLOUDY    56  49  77 N7        30.15R
DAYTON         LGT RAIN  56  52  86 N14       30.17S
WILMINGTON     LGT RAIN  53  49  86 N12       30.13F FOG
HUNTINGTON     CLOUDY    63  55  75 N6        30.07F
CHARLESTON     CLOUDY    70  59  68 NW6       30.05F
PINEVILLE*     PTSUNNY   77  67  71 MISG      30.09S
BECKLEY        CLOUDY    70  61  73 SE8       30.07F
BLUEFIELD      PTSUNNY   73  61  65 SE7       30.09F
$$

VAZ002-007-008-TNZ017-027-036-066-071-012000
...SOUTHWEST VIRGINIA/EAST TENNESSEE...

CITY           SKY/WX    TMP DP  RH WIND       PRES   REMARKS
WISE*          PTSUNNY   73  59  60 SW10      30.09F
JONESVILLE*    PTCLDY    81  63  54 SW14G20   30.05F
ABINGDON*      MOSUNNY   80  63  55 SW10G16   30.06F
BRISTOL        PTSUNNY   81  60  48 VRB5      30.03F
KNOXVILLE      CLOUDY    76  66  71 SW14      30.03F
OAK RIDGE      PTSUNNY   79  64  60 VRB7G16   30.04F
CROSSVILLE     LGT RAIN  71  64  78 VRB3      30.08S
NASHVILLE      LGT RAIN  66  64  93 CALM      30.08F
$$

...KEY TO REMARKS...
VSB - VISIBILITY IN MILES
WCI - WIND CHILL INDEX
HX  - HEAT INDEX

$$



USA.gov is the U.S. government's official web portal to all federal, state and local government web resources and services.